Terminal Aerodrome Forecast
Issued by NWS St Louis, MO

Home | Current Version | Previous Version | Text Only | Print | Product List | Glossary On
Versions: 1 2 3 4 5 6 7 8 9 10 11 12 13 14 15 16 17 18 19 20 21 22 23 24 25
416
FTUS43 KLSX 012052 AAB
TAFSTL
TAF AMD
KSTL 012052Z 0121/0224 27011G16KT P6SM FEW035 FEW250
     FM012300 27005KT P6SM SCT140=

USA.gov is the U.S. government's official web portal to all federal, state and local government web resources and services.